Flag for U.S.A. Weather past 2 weeks in Ann Arbor, Michigan, U.S.A.

Now
60 °F

Sunny.


Feels Like: 60 °F
Forecast: 53 / 76 °F
Wind: No wind

Location: Ann Arbor Municipal Airport

Current Time: Jul 30, 2014 at 9:42:59 PM

Latest Report: Jul 30, 2014 at 8:53 PM


Visibility: 7 mi

Pressure: 29.98 "Hg

Humidity: 90%

Dew point: 57 °F

Location of Ann ArborLocation

Historic Weather in Ann Arbor — Graph

°F

Ann Arbor temperature yesterday

Maximum temperature yesterday: 75 °F (at 4:53 PM)
Minimum temperature yesterday: 43 °F (at 1:53 AM)
Average temperature yesterday: 58 °F

Past Weeks' High & Low Weather Summary

 TemperatureHumidityPressure
High85 °F (Jul 22, 12:53 PM)97% (Jul 20, 1:53 AM)30.24 "Hg (Jul 20, 1:53 AM)
Low43 °F (Jul 29, 1:53 AM)36% (Jul 17, 4:53 PM)29.58 "Hg (Jul 27, 3:53 PM)
Average65 °F70%30.00 "Hg
* Reported Jul 15 7:53 PM — Jul 30 7:53 PM, Ann Arbor, Weather by CustomWeather, © 2014

Note: Actual official high and low records may vary slightly from our data, if they occured in-between our weather recording intervals... More about our weather records

Advertising

Ann Arbor weather history for previous 24 hours

 ConditionsComfort  
Time TempWeatherWind HumidityBarometerVisibility
7:53 PM
Jul 30
65 °FRain. Broken clouds.No wind73%29.98 "Hg2 mi
6:53 PM72 °FPartly sunny.7 mph53%29.97 "Hg10 mi
5:53 PM74 °FPassing clouds.10 mph46%29.96 "Hg10 mi
4:53 PM78 °FPassing clouds.6 mph42%29.96 "Hg10 mi
3:53 PM76 °FPassing clouds.7 mph47%29.97 "Hg10 mi
2:53 PM76 °FBroken clouds.N/A48%29.98 "Hg10 mi
1:53 PM73 °FBroken clouds.9 mph53%30.00 "Hg10 mi
12:53 PM70 °FScattered clouds.3 mph59%30.01 "Hg10 mi
11:53 AM69 °FPartly sunny.7 mph61%30.01 "Hg10 mi
10:53 AM68 °FBroken clouds.5 mph68%30.01 "Hg10 mi
9:53 AM64 °FPartly sunny.6 mph78%30.01 "Hg10 mi
8:53 AM61 °FPartly sunny.5 mph83%30.01 "Hg10 mi
7:53 AM59 °FSunny.3 mph87%29.99 "Hg10 mi
6:53 AM59 °FPassing clouds.7 mph84%29.98 "Hg10 mi
5:53 AM53 °FClear.5 mph93%29.97 "Hg9 mi
4:53 AM56 °FClear.5 mph90%29.96 "Hg10 mi
3:53 AM58 °FClear.7 mph87%29.96 "Hg10 mi
2:53 AM54 °FFog.6 mph90%29.96 "Hg5 mi
1:53 AM52 °FFog.No wind89%29.97 "Hg0 mi
1:01 AM56 °FFog.5 mph93%29.98 "Hg1 mi
12:53 AM56 °FFog.5 mph93%29.97 "Hg2 mi
11:53 PM
Jul 29
56 °FClear.5 mph90%29.97 "Hg10 mi
10:53 PM58 °FPassing clouds.No wind90%29.97 "Hg10 mi
9:53 PM60 °FMostly cloudy.7 mph86%29.97 "Hg10 mi
9:00 PM60 °FThunderstorms. Overcast.6 mph86%29.98 "Hg10 mi
Weather by CustomWeather, © 2014

See weather overviewHow to use our weather pages